Location: Stanford
(52.2833°N, 2.4333°W)
Time: 02:47:34
(UTC+00:00)

USA 229 DEB - Pass Details

Date: 22 January 2021
Orbit: 965 x 1247 km, 63.4° (Epoch: 23 February)

Event Time Altitude Azimuth Distance (km) Brightness Sun altitude
Rises 19:59:03 0° 314° (NW) 3,948 7.4 -30.1°
Reaches altitude 10° 20:01:44 10° 309° (NW) 3,026 6.7 -30.5°
Maximum altitude 20:08:43 52° 236° (WSW) 1,448 4.5 -31.6°
Enters shadow 20:11:40 35° 183° (S) 1,854 4.8 -32.0°
